Total_Precipitation_Accumulation
1.21 0.93 1.55 1.62 1.45 1.25 1.14 1.11 1.20 1.25 1.19 1.09 1.10 1.03 0.91 0.79 0.71 0.62 0.55 0.53 0.54 0.51 0.50 0.48 0.49 0.54 0.54 0.52 0.60 0.68 0.71 0.62 0.61 0.64 0.56 0.55 0.64 0.63 0.64 0.81 1.24 1.62 1.05
0.69 0.72 1.47 1.58 1.36 1.20 1.07 1.09 1.25 1.27 1.24 1.17 1.10 0.98 0.84 0.72 0.66 0.61 0.55 0.49 0.49 0.48 0.48 0.47 0.46 0.54 0.59 0.57 0.64 0.73 0.70 0.66 0.70 0.77 0.75 0.75 0.70 0.66 0.67 0.77 1.12 1.43 1.05
0.56 0.64 1.09 1.48 1.34 1.23 1.14 1.10 1.11 1.12 1.15 1.01 0.96 0.94 0.84 0.73 0.66 0.60 0.53 0.47 0.44 0.48 0.45 0.43 0.45 0.54 0.61 0.66 0.67 0.66 0.63 0.68 0.75 0.89 1.23 1.69 1.20 0.82 0.78 0.73 0.89 0.94 0.90
0.60 0.62 0.83 1.35 1.38 1.27 1.17 1.15 1.11 1.07 1.09 0.97 0.91 0.86 0.77 0.71 0.66 0.62 0.55 0.50 0.44 0.42 0.44 0.44 0.44 0.49 0.55 0.59 0.63 0.62 0.59 0.65 0.76 0.92 1.32 1.77 1.61 1.17 0.99 0.95 0.99 0.85 0.88
0.61 0.64 0.89 1.36 1.34 1.31 1.28 1.28 1.28 1.15 1.09 0.98 0.84 0.83 0.79 0.75 0.69 0.63 0.58 0.51 0.46 0.47 0.45 0.45 0.44 0.49 0.57 0.57 0.54 0.55 0.59 0.72 0.87 0.80 1.09 1.48 1.85 1.55 1.13 1.12 1.16 0.99 0.94
0.64 0.65 0.88 1.21 1.26 1.25 1.29 1.30 1.26 1.10 1.00 0.94 0.83 0.81 0.83 0.81 0.74 0.69 0.63 0.57 0.52 0.53 0.49 0.49 0.49 0.54 0.58 0.59 0.56 0.60 0.73 0.81 0.77 0.87 1.12 1.42 1.84 1.63 1.27 1.18 1.13 1.22 1.10
0.65 0.61 0.78 1.12 1.18 1.23 1.18 1.06 1.07 1.04 0.99 0.88 0.79 0.75 0.75 0.75 0.72 0.68 0.70 0.65 0.61 0.61 0.57 0.57 0.56 0.54 0.55 0.60 0.62 0.69 0.79 0.78 0.79 1.00 1.07 1.34 1.45 1.43 1.25 1.17 1.22 1.42 1.31
0.77 0.64 0.67 1.00 1.12 1.11 1.09 1.06 1.12 1.08 0.98 0.83 0.73 0.73 0.73 0.74 0.71 0.65 0.64 0.63 0.65 0.69 0.68 0.63 0.62 0.55 0.57 0.65 0.69 0.76 0.86 0.81 0.77 0.89 0.87 1.13 1.46 1.47 1.16 1.13 1.20 1.39 1.49
1.10 0.90 0.77 0.86 1.00 1.05 1.11 1.12 1.20 1.22 1.10 0.92 0.77 0.75 0.75 0.66 0.59 0.56 0.60 0.62 0.64 0.65 0.67 0.66 0.66 0.61 0.61 0.70 0.75 0.82 0.90 0.85 0.88 0.86 0.73 1.09 1.52 1.40 1.13 1.02 1.06 1.23 1.36
1.12 1.04 0.93 0.89 0.94 0.97 1.04 1.22 1.33 1.43 1.47 1.21 0.91 0.82 0.75 0.62 0.55 0.58 0.59 0.62 0.67 0.74 0.72 0.70 0.72 0.70 0.75 0.76 0.77 0.79 0.79 0.72 0.78 0.76 0.84 1.03 1.45 1.38 1.10 0.96 0.93 0.95 1.05
0.78 0.81 0.85 0.89 0.96 0.91 0.90 1.05 1.29 1.46 1.57 1.27 0.89 0.91 0.82 0.57 0.57 0.63 0.64 0.77 0.85 0.90 0.89 0.89 0.91 0.92 0.91 0.83 0.83 0.86 0.68 0.51 0.64 0.76 0.89 1.10 1.44 1.38 1.08 0.91 0.75 0.77 0.80
0.61 0.56 0.56 0.59 0.69 0.75 0.75 0.98 1.24 1.29 1.39 1.11 0.93 0.96 0.92 0.97 0.91 0.71 0.70 0.90 1.05 1.12 1.04 1.03 1.08 1.01 0.87 0.70 0.71 0.70 0.52 0.52 0.61 0.69 0.79 1.16 1.47 1.36 1.09 0.88 0.70 0.69 0.70
0.47 0.43 0.41 0.43 0.46 0.55 0.75 1.00 1.21 1.27 1.30 1.33 1.37 1.23 1.20 1.16 0.96 0.79 0.76 0.81 0.89 0.98 0.93 1.02 1.04 0.89 0.79 0.67 0.63 0.53 0.48 0.60 0.73 0.69 0.83 1.16 1.44 1.36 1.18 1.01 0.80 0.73 0.73
0.48 0.46 0.39 0.30 0.32 0.39 0.54 0.76 1.03 1.11 1.16 1.24 1.24 1.04 1.13 1.14 0.95 0.89 0.98 1.01 0.98 0.97 1.10 1.15 1.11 1.06 0.88 0.70 0.66 0.66 0.64 0.61 0.71 0.79 0.94 1.02 1.36 1.51 1.32 1.17 0.98 0.87 0.82
0.56 0.64 0.60 0.44 0.38 0.40 0.45 0.51 0.64 0.74 0.85 1.13 1.21 0.95 0.93 0.95 0.99 1.02 0.94 1.08 1.15 1.15 1.15 1.15 1.05 0.99 0.97 0.85 0.86 0.89 0.86 0.72 0.72 0.77 0.93 0.90 1.11 1.48 1.57 1.38 1.21 1.04 0.94
0.41 0.52 0.59 0.56 0.55 0.52 0.45 0.40 0.40 0.46 0.59 0.74 0.76 0.72 0.75 0.78 0.88 1.05 1.00 0.99 1.07 1.25 1.31 1.24 1.13 1.15 1.13 0.98 0.98 1.05 0.99 0.89 0.87 0.87 0.97 0.84 0.71 0.90 1.27 1.45 1.43 1.31 1.13
0.32 0.36 0.44 0.51 0.56 0.58 0.60 0.58 0.48 0.47 0.54 0.56 0.56 0.62 0.69 0.69 0.82 0.99 0.95 0.87 0.86 1.03 1.21 1.33 1.35 1.31 1.16 1.07 1.07 1.08 0.99 0.97 0.96 1.05 1.06 0.99 0.79 0.62 0.81 1.10 1.32 1.38 1.33
0.31 0.29 0.34 0.37 0.44 0.53 0.62 0.69 0.66 0.62 0.58 0.52 0.49 0.47 0.50 0.52 0.61 0.81 0.88 0.80 0.81 0.98 1.20 1.38 1.49 1.53 1.39 1.34 1.35 1.25 1.10 1.06 1.04 1.13 1.14 1.14 1.10 0.86 0.74 0.73 0.88 1.09 1.25
0.31 0.28 0.26 0.29 0.34 0.41 0.51 0.58 0.58 0.57 0.54 0.52 0.52 0.41 0.39 0.41 0.53 0.74 0.92 0.97 0.98 1.09 1.21 1.26 1.46 1.55 1.63 1.52 1.40 1.30 1.22 1.20 1.14 1.09 1.23 1.20 1.17 1.10 0.95 0.66 0.58 0.67 0.87
0.30 0.28 0.26 0.28 0.28 0.32 0.36 0.43 0.48 0.46 0.44 0.50 0.49 0.47 0.51 0.58 0.65 0.84 1.08 1.17 1.29 1.31 1.37 1.54 1.82 1.82 1.71 1.67 1.54 1.36 1.21 1.20 1.22 1.27 1.28 1.23 1.26 1.16 1.03 0.86 0.72 0.50 0.55
0.23 0.21 0.21 0.25 0.27 0.26 0.24 0.29 0.34 0.35 0.44 0.51 0.59 0.64 0.69 0.72 0.80 1.02 1.23 1.47 1.60 1.49 1.50 1.71 1.98 2.14 1.97 1.80 1.81 1.72 1.56 1.37 1.32 1.33 1.33 1.35 1.36 1.29 1.19 1.13 1.01 0.84 0.66
0.08 0.11 0.15 0.16 0.18 0.18 0.18 0.23 0.32 0.39 0.45 0.58 0.74 0.85 0.87 0.85 0.91 0.96 1.16 1.37 1.45 1.50 1.54 1.65 1.88 2.22 2.10 1.87 1.98 2.32 2.12 1.87 1.48 1.23 1.37 1.43 1.46 1.39 1.27 1.14 1.11 1.03 0.92
0.06 0.06 0.10 0.13 0.16 0.16 0.23 0.41 0.68 0.93 1.01 1.03 1.05 1.19 1.29 1.25 1.19 1.17 1.20 1.34 1.42 1.56 1.60 1.64 1.71 1.99 2.09 1.97 1.98 2.46 2.36 2.14 1.99 1.54 1.28 1.35 1.45 1.51 1.48 1.37 1.25 1.16 1.05
0.07 0.07 0.08 0.12 0.17 0.20 0.36 0.69 1.07 1.40 1.49 1.50 1.62 1.66 1.72 1.64 1.50 1.48 1.49 1.57 1.53 1.51 1.51 1.54 1.54 1.73 2.04 2.09 2.00 1.91 1.89 1.93 2.21 1.94 1.45 1.31 1.35 1.37 1.47 1.38 1.39 1.37 1.34
0.13 0.15 0.16 0.22 0.35 0.51 0.66 0.83 1.13 1.33 1.44 1.59 1.75 1.89 2.00 2.11 2.09 2.01 1.93 1.79 1.61 1.53 1.56 1.60 1.60 1.69 1.80 1.92 1.90 1.83 1.84 1.77 1.62 1.77 1.73 1.52 1.35 1.25 1.34 1.39 1.42 1.43 1.49
0.28 0.30 0.33 0.42 0.51 0.59 0.70 0.84 0.98 1.07 1.24 1.44 1.59 1.76 1.90 2.02 2.04 1.98 1.85 1.64 1.46 1.40 1.47 1.60 1.63 1.68 1.68 1.74 1.72 1.65 1.66 1.63 1.52 1.65 1.61 1.63 1.62 1.29 1.18 1.22 1.30 1.34 1.34